EZS9073 EKCH-LSGG

Flight info

Callsign EZS9073
Flight time N/A
Altitude 38000
Route NEXEN T503 GIMRU DCT MICOS DCT BOMBI DCT GIGET DCT ABUKA DCT KRH DCT NATOR/N0451F370 DCT LUTIX DCT BENOT
Aircraft A320/M-SDE3FGHIRWY/LB1

Departure

Time 2026-05-06 11:35
Airport Copenhagen Kastrup Airport (EKCH)

Arrival

Time N/A
Airport Geneva International Airport (LSGG)
Time Latitude Longitude Altitude Speed Heading
2026-05-06 11:16 55.62700 12.64585 25 ft 0 kts 283°
2026-05-06 11:27 55.62697 12.64611 24 ft 3 kts 266°
2026-05-06 11:27 55.62701 12.64641 26 ft 2 kts 237°
2026-05-06 11:28 55.62710 12.64664 27 ft 2 kts 237°
2026-05-06 11:28 55.62716 12.64682 25 ft 0 kts 234°
2026-05-06 11:29 55.62710 12.64676 26 ft 3 kts 210°
2026-05-06 11:30 55.62660 12.64670 24 ft 12 kts 187°
2026-05-06 11:30 55.62584 12.64653 24 ft 11 kts 180°
2026-05-06 11:30 55.62515 12.64654 24 ft 10 kts 179°
2026-05-06 11:30 55.62455 12.64668 26 ft 9 kts 172°
2026-05-06 11:31 55.62369 12.64676 24 ft 15 kts 178°
2026-05-06 11:31 55.62302 12.64772 24 ft 12 kts 122°
2026-05-06 11:31 55.62259 12.64888 24 ft 11 kts 123°
2026-05-06 11:31 55.62218 12.64996 24 ft 13 kts 123°
2026-05-06 11:32 55.62135 12.65096 26 ft 13 kts 201°
2026-05-06 11:32 55.62088 12.65011 24 ft 10 kts 210°
2026-05-06 11:32 55.61945 12.64877 25 ft 33 kts 212°
2026-05-06 11:32 55.61760 12.64667 24 ft 34 kts 214°
2026-05-06 11:33 55.61568 12.64434 24 ft 35 kts 212°
2026-05-06 11:33 55.61359 12.64201 26 ft 36 kts 213°
2026-05-06 11:33 55.61153 12.63964 24 ft 36 kts 213°
2026-05-06 11:33 55.60938 12.63715 24 ft 37 kts 212°
2026-05-06 11:34 55.60784 12.63608 27 ft 17 kts 140°
2026-05-06 11:34 55.60708 12.63760 24 ft 16 kts 129°
2026-05-06 11:34 55.60716 12.63926 29 ft 18 kts 51°
2026-05-06 11:34 55.60961 12.64301 24 ft 82 kts 41°
2026-05-06 11:35 55.61518 12.65166 23 ft 136 kts 41°
2026-05-06 11:35 55.62328 12.66363 403 ft 149 kts 39°
2026-05-06 11:35 55.63090 12.67513 1142 ft 150 kts 44°
2026-05-06 11:35 55.63921 12.68818 1664 ft 164 kts 45°
2026-05-06 11:36 55.64810 12.70235 1969 ft 186 kts 44°
2026-05-06 11:36 55.65822 12.71813 2306 ft 206 kts 43°
2026-05-06 11:36 55.66903 12.73443 2689 ft 225 kts 42°
2026-05-06 11:36 55.68156 12.75312 3254 ft 242 kts 42°
2026-05-06 11:37 55.69319 12.77523 3957 ft 250 kts 60°
2026-05-06 11:37 55.69924 12.80363 4829 ft 253 kts 82°
2026-05-06 11:37 55.69853 12.83475 5699 ft 258 kts 104°
2026-05-06 11:37 55.69056 12.86352 6530 ft 267 kts 127°
2026-05-06 11:38 55.67615 12.88481 6851 ft 274 kts 152°
2026-05-06 11:38 55.65841 12.89672 7091 ft 278 kts 159°
2026-05-06 11:38 55.64006 12.90781 7976 ft 280 kts 164°
2026-05-06 11:38 55.62075 12.91218 8817 ft 284 kts 181°
2026-05-06 11:39 55.60129 12.90671 9680 ft 286 kts 199°
2026-05-06 11:39 55.58323 12.89157 10384 ft 293 kts 214°
2026-05-06 11:39 55.56741 12.86692 10615 ft 315 kts 227°
2026-05-06 11:39 55.55186 12.83825 11077 ft 328 kts 227°
2026-05-06 11:40 55.53592 12.80901 11798 ft 332 kts 226°
2026-05-06 11:40 55.51982 12.77959 12584 ft 334 kts 226°
2026-05-06 11:40 55.50393 12.74936 13357 ft 337 kts 229°
2026-05-06 11:40 55.48875 12.71823 14047 ft 340 kts 230°
2026-05-06 11:41 55.47359 12.68593 14692 ft 343 kts 231°
2026-05-06 11:41 55.45837 12.65310 15323 ft 347 kts 231°
2026-05-06 11:41 55.44295 12.61996 15945 ft 350 kts 231°
2026-05-06 11:41 55.42731 12.58670 16567 ft 354 kts 231°
2026-05-06 11:42 55.41162 12.55370 17194 ft 357 kts 230°
2026-05-06 11:42 55.39549 12.52000 17789 ft 361 kts 230°
2026-05-06 11:42 55.37919 12.48603 18372 ft 365 kts 230°
2026-05-06 11:42 55.36274 12.45177 18915 ft 367 kts 230°
2026-05-06 11:43 55.34615 12.41726 19466 ft 370 kts 230°
2026-05-06 11:43 55.32943 12.38260 20030 ft 372 kts 230°
2026-05-06 11:43 55.31261 12.34782 20601 ft 375 kts 230°
2026-05-06 11:44 55.27884 12.27805 21737 ft 379 kts 230°
2026-05-06 11:44 55.26165 12.24269 22313 ft 381 kts 230°
2026-05-06 11:44 55.24439 12.20727 22888 ft 383 kts 230°
2026-05-06 11:44 55.22702 12.17157 23440 ft 385 kts 230°
2026-05-06 11:45 55.20939 12.13595 23891 ft 388 kts 227°
2026-05-06 11:45 55.18909 12.10457 24310 ft 391 kts 217°
2026-05-06 11:45 55.16733 12.07691 24719 ft 393 kts 217°
2026-05-06 11:45 55.14520 12.04868 25127 ft 395 kts 217°
2026-05-06 11:46 55.12296 12.02017 25511 ft 397 kts 217°
2026-05-06 11:46 55.10069 11.99161 25902 ft 399 kts 217°
2026-05-06 11:46 55.07820 11.96284 26275 ft 401 kts 216°
2026-05-06 11:46 55.05560 11.93404 26649 ft 403 kts 216°
2026-05-06 11:47 55.03284 11.90515 27015 ft 405 kts 216°
2026-05-06 11:47 55.00996 11.87621 27381 ft 407 kts 216°
2026-05-06 11:47 54.98698 11.84717 27744 ft 409 kts 216°
2026-05-06 11:47 54.96416 11.81831 28084 ft 411 kts 216°
2026-05-06 11:48 54.94095 11.78898 28425 ft 413 kts 216°
2026-05-06 11:48 54.91762 11.75956 28754 ft 415 kts 215°
2026-05-06 11:48 54.89420 11.73004 29068 ft 417 kts 215°
2026-05-06 11:48 54.87068 11.70043 29383 ft 419 kts 215°
2026-05-06 11:49 54.84698 11.67063 29687 ft 421 kts 215°
2026-05-06 11:49 54.82318 11.64076 29972 ft 423 kts 215°
2026-05-06 11:49 54.79956 11.61121 30217 ft 424 kts 215°
2026-05-06 11:49 54.77548 11.58114 30464 ft 426 kts 215°
2026-05-06 11:50 54.75140 11.55111 30715 ft 428 kts 214°
2026-05-06 11:50 54.72719 11.52096 30942 ft 429 kts 214°
2026-05-06 11:50 54.70298 11.49079 31207 ft 430 kts 214°
2026-05-06 11:50 54.67873 11.46060 31544 ft 428 kts 214°
2026-05-06 11:51 54.65456 11.43054 31882 ft 427 kts 214°
2026-05-06 11:51 54.63044 11.40064 32197 ft 426 kts 214°
2026-05-06 11:51 54.60634 11.37078 32500 ft 425 kts 214°
2026-05-06 11:51 54.58263 11.34150 32821 ft 424 kts 214°
2026-05-06 11:52 54.55862 11.31202 33140 ft 423 kts 214°
2026-05-06 11:52 54.53468 11.28263 33463 ft 422 kts 213°
2026-05-06 11:52 54.51074 11.25329 33783 ft 421 kts 213°
2026-05-06 11:52 54.48682 11.22419 34073 ft 420 kts 213°
2026-05-06 11:53 54.46288 11.19524 34337 ft 420 kts 213°
2026-05-06 11:53 54.43905 11.16637 34584 ft 419 kts 214°
2026-05-06 11:53 54.41520 11.13740 34824 ft 419 kts 214°
2026-05-06 11:53 54.39136 11.10853 35038 ft 419 kts 214°
2026-05-06 11:54 54.36746 11.07975 35266 ft 419 kts 214°
2026-05-06 11:54 54.34390 11.05140 35490 ft 419 kts 214°
2026-05-06 11:54 54.31995 11.02295 35695 ft 419 kts 211°
2026-05-06 11:54 54.29419 10.99980 35894 ft 418 kts 202°
2026-05-06 11:55 54.26674 10.98311 36080 ft 418 kts 199°
2026-05-06 11:55 54.23916 10.96740 36258 ft 418 kts 199°
2026-05-06 11:55 54.21144 10.95156 36437 ft 419 kts 199°
2026-05-06 11:55 54.18376 10.93573 36612 ft 419 kts 199°
2026-05-06 11:56 54.15608 10.91989 36784 ft 419 kts 199°
2026-05-06 11:56 54.12842 10.90411 36955 ft 419 kts 199°
2026-05-06 11:56 54.10072 10.88830 37122 ft 420 kts 199°
2026-05-06 11:56 54.07303 10.87248 37290 ft 419 kts 199°
2026-05-06 11:57 54.04567 10.85692 37441 ft 420 kts 199°
2026-05-06 11:57 54.01793 10.84116 37588 ft 420 kts 199°
2026-05-06 11:57 53.99014 10.82546 37758 ft 419 kts 199°
2026-05-06 11:57 53.96246 10.80985 37875 ft 420 kts 199°
2026-05-06 11:58 53.90684 10.77859 37889 ft 420 kts 199°
2026-05-06 11:58 53.85128 10.74735 37892 ft 420 kts 199°
2026-05-06 11:59 53.79596 10.71627 37895 ft 420 kts 199°
2026-05-06 11:59 53.74040 10.68525 37892 ft 421 kts 199°
2026-05-06 12:00 53.68474 10.65431 37889 ft 421 kts 199°
2026-05-06 12:00 53.62897 10.62332 37881 ft 422 kts 199°
2026-05-06 12:01 53.57350 10.59258 37871 ft 422 kts 199°
2026-05-06 12:01 53.51766 10.56162 37866 ft 422 kts 199°
2026-05-06 12:02 53.46182 10.53085 37863 ft 422 kts 199°
2026-05-06 12:02 53.40626 10.50036 37850 ft 422 kts 199°
2026-05-06 12:03 53.35036 10.46964 37858 ft 422 kts 199°
2026-05-06 12:03 53.30390 10.44418 37852 ft 422 kts 199°
2026-05-06 12:04 53.23884 10.40871 37856 ft 422 kts 199°
2026-05-06 12:04 53.19196 10.38331 37846 ft 422 kts 199°
2026-05-06 12:05 53.13640 10.35319 37849 ft 422 kts 199°
2026-05-06 12:05 53.08046 10.32286 37846 ft 422 kts 199°
2026-05-06 12:06 53.02457 10.29264 37854 ft 422 kts 199°
2026-05-06 12:06 52.96866 10.26252 37843 ft 422 kts 199°
2026-05-06 12:07 52.91308 10.23279 37857 ft 422 kts 199°
2026-05-06 12:07 52.85713 10.20304 37851 ft 422 kts 199°
2026-05-06 12:08 52.80124 10.17305 37844 ft 422 kts 199°
2026-05-06 12:08 52.74574 10.14344 37845 ft 422 kts 199°
2026-05-06 12:09 52.68964 10.11374 37857 ft 422 kts 199°
2026-05-06 12:09 52.63372 10.08411 37855 ft 422 kts 199°
2026-05-06 12:10 52.57768 10.05440 37842 ft 422 kts 199°
2026-05-06 12:10 52.52190 10.02517 37855 ft 423 kts 199°
2026-05-06 12:11 52.46582 9.99581 37858 ft 423 kts 199°
2026-05-06 12:11 52.40956 9.96629 37854 ft 423 kts 199°
2026-05-06 12:12 52.35372 9.93704 37851 ft 424 kts 199°
2026-05-06 12:12 52.29744 9.90776 37851 ft 424 kts 199°
2026-05-06 12:13 52.24124 9.87857 37848 ft 424 kts 199°
2026-05-06 12:13 52.18502 9.84931 37843 ft 423 kts 199°
2026-05-06 12:14 52.12881 9.82027 37840 ft 423 kts 199°
2026-05-06 12:14 52.07296 9.79157 37838 ft 423 kts 199°
2026-05-06 12:15 52.01681 9.76276 37833 ft 423 kts 199°
2026-05-06 12:15 51.96057 9.73394 37827 ft 423 kts 199°
2026-05-06 12:16 51.90431 9.70519 37826 ft 423 kts 199°
2026-05-06 12:16 51.84817 9.67647 37818 ft 423 kts 199°
2026-05-06 12:17 51.79201 9.64789 37813 ft 423 kts 199°
2026-05-06 12:17 51.73581 9.61936 37808 ft 423 kts 199°
2026-05-06 12:18 51.68002 9.59122 37805 ft 423 kts 199°
2026-05-06 12:18 51.62384 9.56296 37797 ft 423 kts 199°
2026-05-06 12:19 51.56765 9.53461 37790 ft 423 kts 199°
2026-05-06 12:19 51.51154 9.50643 37786 ft 423 kts 199°
2026-05-06 12:20 51.45535 9.47835 37784 ft 423 kts 199°
2026-05-06 12:20 51.39914 9.45033 37784 ft 423 kts 199°
2026-05-06 12:21 51.34284 9.42225 37788 ft 423 kts 199°
2026-05-06 12:21 51.28688 9.39435 37789 ft 423 kts 199°
2026-05-06 12:22 51.23050 9.36639 37765 ft 423 kts 199°
2026-05-06 12:22 51.17417 9.33862 37766 ft 424 kts 198°
2026-05-06 12:23 51.11800 9.31098 37769 ft 424 kts 198°
2026-05-06 12:23 51.06160 9.28314 37773 ft 424 kts 198°
2026-05-06 12:24 51.00517 9.25538 37770 ft 424 kts 198°
2026-05-06 12:24 50.94863 9.22764 37775 ft 424 kts 198°
2026-05-06 12:25 50.89217 9.20008 37773 ft 424 kts 198°
2026-05-06 12:25 50.83571 9.17267 37778 ft 424 kts 198°
2026-05-06 12:26 50.77962 9.14553 37780 ft 424 kts 198°
2026-05-06 12:26 50.72316 9.11816 37776 ft 424 kts 198°
2026-05-06 12:27 50.66671 9.09082 37774 ft 424 kts 198°
2026-05-06 12:27 50.61040 9.06363 37766 ft 424 kts 198°
2026-05-06 12:28 50.55434 9.03665 37764 ft 424 kts 198°
2026-05-06 12:28 50.49792 9.00957 37759 ft 424 kts 198°
2026-05-06 12:29 50.44137 8.98263 37764 ft 424 kts 198°
2026-05-06 12:29 50.38492 8.95575 37765 ft 424 kts 198°
2026-05-06 12:30 50.32843 8.92880 37768 ft 424 kts 198°
2026-05-06 12:30 50.27238 8.90210 37771 ft 424 kts 198°
2026-05-06 12:31 50.21589 8.87532 37778 ft 424 kts 198°
2026-05-06 12:31 50.15942 8.84863 37785 ft 423 kts 198°
2026-05-06 12:32 50.10300 8.82213 37795 ft 423 kts 198°
2026-05-06 12:32 50.04654 8.79822 37797 ft 424 kts 190°
2026-05-06 12:33 49.98804 8.78590 37799 ft 423 kts 189°
2026-05-06 12:33 49.92962 8.77378 37799 ft 423 kts 189°
2026-05-06 12:34 49.87117 8.76176 37796 ft 423 kts 189°
2026-05-06 12:34 49.81320 8.74987 37793 ft 422 kts 189°
2026-05-06 12:35 49.75491 8.73780 37795 ft 422 kts 189°
2026-05-06 12:35 49.69664 8.72578 37804 ft 422 kts 189°
2026-05-06 12:36 49.63866 8.71397 37806 ft 422 kts 189°
2026-05-06 12:36 49.58037 8.70225 37809 ft 422 kts 189°
2026-05-06 12:37 49.52202 8.69061 37809 ft 423 kts 189°
2026-05-06 12:37 49.46362 8.67891 37805 ft 423 kts 189°
2026-05-06 12:38 49.40518 8.66707 37806 ft 423 kts 189°
2026-05-06 12:38 49.34669 8.65520 37806 ft 424 kts 189°
2026-05-06 12:39 49.28855 8.64344 37804 ft 424 kts 189°
2026-05-06 12:39 49.23003 8.63169 37803 ft 424 kts 189°
2026-05-06 12:40 49.17132 8.61989 37804 ft 424 kts 189°
2026-05-06 12:40 49.11269 8.60813 37807 ft 424 kts 189°
2026-05-06 12:41 49.05444 8.59644 37813 ft 424 kts 189°
2026-05-06 12:41 48.99584 8.58470 37815 ft 424 kts 190°
2026-05-06 12:42 48.93769 8.56887 37820 ft 423 kts 194°
2026-05-06 12:42 48.88035 8.54892 37824 ft 422 kts 195°
2026-05-06 12:43 48.82344 8.52915 37827 ft 422 kts 194°
2026-05-06 12:43 48.76587 8.51037 37824 ft 421 kts 193°
2026-05-06 12:44 48.70880 8.49229 37829 ft 421 kts 193°
2026-05-06 12:44 48.65146 8.47408 37827 ft 420 kts 193°
2026-05-06 12:45 48.59422 8.45576 37829 ft 420 kts 193°
2026-05-06 12:46 48.50847 8.42833 37837 ft 419 kts 193°
2026-05-06 12:46 48.45178 8.41029 37832 ft 419 kts 193°
2026-05-06 12:47 48.39455 8.39208 37831 ft 419 kts 193°
2026-05-06 12:47 48.33747 8.37405 37837 ft 418 kts 193°
2026-05-06 12:48 48.28075 8.35615 37843 ft 418 kts 193°
2026-05-06 12:48 48.22380 8.33819 37843 ft 418 kts 193°
2026-05-06 12:49 48.16795 8.31534 37840 ft 415 kts 205°
2026-05-06 12:49 48.12651 8.27931 37842 ft 414 kts 213°
2026-05-06 12:50 48.07805 8.23239 37842 ft 414 kts 213°
2026-05-06 12:50 48.02172 8.17819 37840 ft 414 kts 213°
2026-05-06 12:51 47.98107 8.13913 37840 ft 414 kts 213°
2026-05-06 12:51 47.93290 8.09290 37844 ft 414 kts 213°
2026-05-06 12:52 47.88434 8.04647 37851 ft 414 kts 213°
2026-05-06 12:52 47.83578 8.00013 37854 ft 414 kts 213°
2026-05-06 12:53 47.78713 7.95392 37857 ft 414 kts 213°
2026-05-06 12:53 47.73845 7.90774 37860 ft 414 kts 213°
2026-05-06 12:54 47.68981 7.86154 37860 ft 415 kts 213°
2026-05-06 12:54 47.64140 7.81574 37863 ft 415 kts 213°
2026-05-06 12:55 47.59269 7.76978 37860 ft 415 kts 213°
2026-05-06 12:55 47.54393 7.72391 37866 ft 415 kts 213°
2026-05-06 12:56 47.51608 7.69775 37872 ft 415 kts 213°
2026-05-06 12:56 47.47182 7.65611 37870 ft 414 kts 213°
2026-05-06 12:57 47.42309 7.61057 37874 ft 414 kts 213°
2026-05-06 12:57 47.37434 7.56504 37881 ft 414 kts 213°
2026-05-06 12:58 47.32562 7.51964 37890 ft 413 kts 213°
2026-05-06 12:58 47.27733 7.47478 37892 ft 413 kts 213°
2026-05-06 12:59 47.22868 7.42965 37893 ft 412 kts 213°
2026-05-06 12:59 47.18011 7.38450 37897 ft 413 kts 216°
2026-05-06 12:59 47.15829 7.35719 37900 ft 412 kts 227°
2026-05-06 13:00 47.14005 7.32465 37899 ft 412 kts 230°
2026-05-06 13:00 47.10436 7.25874 37885 ft 411 kts 230°
2026-05-06 13:01 47.06860 7.19309 37878 ft 412 kts 230°
2026-05-06 13:01 47.03306 7.12770 37881 ft 412 kts 230°
2026-05-06 13:02 46.99731 7.06162 37910 ft 413 kts 230°
2026-05-06 13:02 46.96163 6.99561 37915 ft 413 kts 230°
2026-05-06 13:03 46.92595 6.92955 37919 ft 413 kts 230°
2026-05-06 13:03 46.89051 6.86387 37922 ft 414 kts 230°
2026-05-06 13:04 46.85480 6.79759 37919 ft 414 kts 230°
2026-05-06 13:04 46.81909 6.73143 37913 ft 414 kts 230°
2026-05-06 13:05 46.78357 6.66561 37908 ft 415 kts 230°
2026-05-06 13:05 46.74781 6.59945 37905 ft 415 kts 230°
2026-05-06 13:06 46.71193 6.53317 37902 ft 416 kts 230°
2026-05-06 13:06 46.67597 6.46691 37902 ft 416 kts 230°
2026-05-06 13:07 46.64020 6.40113 37904 ft 417 kts 230°
2026-05-06 13:07 46.60408 6.33490 37909 ft 417 kts 230°
2026-05-06 13:08 46.56806 6.26897 37915 ft 409 kts 230°
2026-05-06 13:08 46.55067 6.23713 37919 ft 395 kts 230°
2026-05-06 13:08 46.53368 6.20603 37921 ft 390 kts 230°
2026-05-06 13:09 46.50023 6.14488 37929 ft 387 kts 230°
2026-05-06 13:09 46.46664 6.08357 37932 ft 387 kts 230°
2026-05-06 13:10 46.43302 6.02235 37936 ft 388 kts 230°
2026-05-06 13:10 46.39939 5.96123 37937 ft 388 kts 230°
2026-05-06 13:11 46.36582 5.90034 37934 ft 388 kts 230°
2026-05-06 13:11 46.33200 5.83923 37938 ft 389 kts 230°
2026-05-06 13:12 46.29813 5.77804 37935 ft 389 kts 230°
2026-05-06 13:12 46.26424 5.71695 37933 ft 389 kts 230°
2026-05-06 13:13 46.23045 5.65621 37930 ft 390 kts 230°
2026-05-06 13:13 46.19644 5.59518 37929 ft 390 kts 230°
2026-05-06 13:14 46.16232 5.53413 37927 ft 390 kts 230°
2026-05-06 13:14 46.12820 5.47317 37930 ft 390 kts 230°
2026-05-06 13:15 46.09401 5.41226 37932 ft 391 kts 230°
2026-05-06 13:15 46.05990 5.35165 37930 ft 391 kts 230°
2026-05-06 13:16 46.02549 5.29062 37931 ft 392 kts 230°
2026-05-06 13:16 45.99110 5.22980 37934 ft 392 kts 230°
2026-05-06 13:17 45.95663 5.16901 37938 ft 392 kts 230°
2026-05-06 13:17 45.92225 5.10863 37942 ft 393 kts 230°
2026-05-06 13:18 45.88755 5.04792 37940 ft 393 kts 230°
2026-05-06 13:18 45.85276 4.98729 37945 ft 393 kts 230°
2026-05-06 13:19 45.81787 4.92673 37947 ft 394 kts 230°
2026-05-06 13:19 45.78289 4.86625 37948 ft 394 kts 230°
2026-05-06 13:20 45.74798 4.80611 37950 ft 394 kts 230°
2026-05-06 13:20 45.71286 4.74581 37944 ft 394 kts 230°
2026-05-06 13:21 45.67775 4.68578 37942 ft 393 kts 230°
2026-05-06 13:21 45.64260 4.62589 37936 ft 392 kts 230°
2026-05-06 13:22 45.60767 4.56661 37924 ft 392 kts 230°
2026-05-06 13:22 45.57243 4.50701 37922 ft 392 kts 230°
2026-05-06 13:23 45.53721 4.44767 37921 ft 391 kts 230°
2026-05-06 13:23 45.50195 4.38844 37924 ft 391 kts 230°
2026-05-06 13:24 45.46688 4.32973 37921 ft 391 kts 230°
2026-05-06 13:24 45.43157 4.27083 37919 ft 390 kts 230°
2026-05-06 13:25 45.39626 4.21203 37920 ft 390 kts 230°
2026-05-06 13:25 45.36089 4.15323 37921 ft 390 kts 230°
2026-05-06 13:26 45.32578 4.09503 37922 ft 389 kts 229°